| time (UTC) | temp F | wind direction | speed MPH | gust MPH | rain 1hr in | rain 24hr in | rain mn in | humidity % | barometer mb |
| 20260901014523 | 86 | 134 | 1.0 | 5.0 | 0.00 | 0.00 | 0.00 | 48 | 1009.1 |
| 20260901014023 | 86 | 186 | 1.0 | 6.0 | 0.00 | 0.00 | 0.00 | 47 | 1009.2 |
| 20260901013524 | 86 | 143 | 1.0 | 6.0 | 0.00 | 0.00 | 0.00 | 47 | 1009.1 |
| 20260901013029 | 86 | 161 | 1.0 | 5.0 | 0.00 | 0.00 | 0.00 | 46 | 1009.1 |
| 20260901012522 | 87 | 123 | 2.0 | 5.0 | 0.00 | 0.00 | 0.00 | 46 | 1009.0 |
| 20260901012021 | 87 | 128 | 0.0 | 4.0 | 0.00 | 0.00 | 0.00 | 46 | 1009.0 |
| 20260901011521 | 87 | 119 | 0.0 | 4.0 | 0.00 | 0.00 | 0.00 | 45 | 1008.9 |
| 20260901011021 | 87 | 124 | 1.0 | 6.0 | 0.00 | 0.00 | 0.00 | 45 | 1009.0 |
| 20260901010524 | 87 | 112 | 0.0 | 8.0 | 0.00 | 0.00 | 0.00 | 45 | 1009.0 |
| 20260901010027 | 87 | 88 | 1.0 | 8.0 | 0.00 | 0.00 | 0.00 | 45 | 1009.0 |
| 20260901005525 | 87 | 124 | 0.0 | 4.0 | 0.00 | 0.00 | 0.00 | 45 | 1009.0 |
| 20260901005021 | 88 | 139 | 0.0 | 5.0 | 0.00 | 0.00 | 0.00 | 45 | 1009.0 |
| 20260901004521 | 88 | 90 | 1.0 | 8.0 | 0.00 | 0.00 | 0.00 | 45 | 1009.0 |
| 20260901004020 | 88 | 70 | 1.0 | 8.0 | 0.00 | 0.00 | 0.00 | 44 | 1008.8 |
| 20260901003520 | 88 | 161 | 1.0 | 7.0 | 0.00 | 0.00 | 0.00 | 44 | 1008.8 |
| 20260901003030 | 88 | 69 | 2.0 | 6.0 | 0.00 | 0.00 | 0.00 | 44 | 1008.9 |
| 20260901002520 | 88 | 154 | 1.0 | 4.0 | 0.00 | 0.00 | 0.00 | 45 | 1008.9 |
| 20260901002020 | 88 | 88 | 2.0 | 8.0 | 0.00 | 0.00 | 0.00 | 45 | 1008.8 |
| 20260901001521 | 88 | 71 | 3.0 | 8.0 | 0.00 | 0.00 | 0.00 | 44 | 1008.8 |
| 20260901001019 | 89 | 111 | 2.0 | 6.0 | 0.00 | 0.00 | 0.00 | 44 | 1008.8 |
| 20260901000519 | 89 | 140 | 2.0 | 6.0 | 0.00 | 0.00 | 0.00 | 44 | 1008.9 |
| 20260901000019 | 89 | 146 | 1.0 | 6.0 | 0.00 | 0.00 | 0.00 | 44 | 1008.9 |
| 20260831235523 | 89 | 69 | 1.0 | 8.0 | 0.00 | 0.00 | 0.00 | 44 | 1009.0 |
| 20260831235019 | 89 | 78 | 3.0 | 8.0 | 0.00 | 0.00 | 0.00 | 43 | 1009.0 |
| 20260831234520 | 89 | 54 | 3.0 | 11.0 | 0.00 | 0.00 | 0.00 | 43 | 1009.0 |
| 20260831234020 | 90 | 163 | 1.0 | 11.0 | 0.00 | 0.00 | 0.00 | 43 | 1009.2 |
| 20260831233519 | 90 | 143 | 2.0 | 7.0 | 0.00 | 0.00 | 0.00 | 42 | 1009.3 |
| 20260831233018 | 90 | 167 | 0.0 | 7.0 | 0.00 | 0.00 | 0.00 | 43 | 1009.2 |
| 20260831232524 | 90 | 67 | 3.0 | 11.0 | 0.00 | 0.00 | 0.00 | 42 | 1009.2 |
| 20260831232018 | 90 | 78 | 4.0 | 11.0 | 0.00 | 0.00 | 0.00 | 41 | 1009.3 |
| 20260831231517 | 90 | 29 | 2.0 | 9.0 | 0.00 | 0.00 | 0.00 | 41 | 1009.4 |
| 20260831231018 | 89 | 36 | 1.0 | 11.0 | 0.00 | 0.00 | 0.00 | 43 | 1009.6 |
| 20260831230517 | 89 | 85 | 4.0 | 10.0 | 0.00 | 0.00 | 0.00 | 42 | 1009.6 |
| 20260831230017 | 89 | 50 | 5.0 | 10.0 | 0.00 | 0.00 | 0.00 | 42 | 1009.5 |
| 20260831225515 | 90 | 167 | 4.0 | 9.0 | 0.00 | 0.00 | 0.00 | 42 | 1009.5 |
| 20260831225014 | 89 | 110 | 1.0 | 10.0 | 0.00 | 0.00 | 0.00 | 45 | 1009.5 |
| 20260831224514 | 89 | 45 | 4.0 | 10.0 | 0.00 | 0.00 | 0.00 | 46 | 1009.7 |
| 20260831224013 | 89 | 115 | 3.0 | 12.0 | 0.00 | 0.00 | 0.00 | 45 | 1009.6 |
| 20260831223513 | 89 | 58 | 5.0 | 12.0 | 0.00 | 0.00 | 0.00 | 45 | 1009.8 |
| 20260831223013 | 88 | 115 | 3.0 | 9.0 | 0.00 | 0.00 | 0.00 | 45 | 1009.8 |
| 20260831222513 | 88 | 86 | 2.0 | 10.0 | 0.00 | 0.00 | 0.00 | 46 | 1009.7 |
| 20260831222011 | 88 | 49 | 4.0 | 10.0 | 0.00 | 0.00 | 0.00 | 46 | 1009.9 |
| 20260831221523 | 88 | 200 | 3.0 | 13.0 | 0.00 | 0.00 | 0.00 | 46 | 1010.0 |
| 20260831221015 | 88 | 73 | 6.0 | 13.0 | 0.00 | 0.00 | 0.00 | 45 | 1010.1 |
| 20260831220512 | 88 | 61 | 5.0 | 11.0 | 0.00 | 0.00 | 0.00 | 47 | 1010.3 |
| 20260831220011 | 88 | 90 | 5.0 | 13.0 | 0.00 | 0.00 | 0.00 | 46 | 1010.4 |
| 20260831215511 | 88 | 109 | 6.0 | 13.0 | 0.00 | 0.00 | 0.00 | 47 | 1010.4 |
| 20260831215011 | 88 | 208 | 4.0 | 9.0 | 0.00 | 0.00 | 0.00 | 50 | 1010.5 |
| 20260831214510 | 88 | 123 | 4.0 | 14.0 | 0.00 | 0.00 | 0.00 | 50 | 1010.6 |
| 20260831214011 | 88 | 116 | 5.0 | 14.0 | 0.00 | 0.00 | 0.00 | 50 | 1010.8 |
| 20260831213511 | 88 | 55 | 6.0 | 11.0 | 0.00 | 0.00 | 0.00 | 51 | 1010.9 |
| 20260831213012 | 88 | 127 | 3.0 | 9.0 | 0.00 | 0.00 | 0.00 | 50 | 1011.0 |
| 20260831212511 | 88 | 119 | 2.0 | 9.0 | 0.00 | 0.00 | 0.00 | 50 | 1011.1 |
| 20260831212010 | 87 | 92 | 4.0 | 13.0 | 0.00 | 0.00 | 0.00 | 50 | 1011.2 |
| 20260831211511 | 87 | 55 | 5.0 | 13.0 | 0.00 | 0.00 | 0.00 | 50 | 1011.3 |
| 20260831211009 | 88 | 60 | 2.0 | 10.0 | 0.00 | 0.00 | 0.00 | 50 | 1011.3 |
| 20260831210509 | 88 | 140 | 4.0 | 10.0 | 0.00 | 0.00 | 0.00 | 48 | 1011.4 |
| 20260831210009 | 88 | 188 | 2.0 | 10.0 | 0.00 | 0.00 | 0.00 | 48 | 1011.5 |
| 20260831205509 | 88 | 128 | 5.0 | 9.0 | 0.00 | 0.00 | 0.00 | 49 | 1011.6 |
| 20260831205009 | 88 | 134 | 3.0 | 9.0 | 0.00 | 0.00 | 0.00 | 49 | 1011.7 |
| 20260831204510 | 88 | 48 | 1.0 | 13.0 | 0.00 | 0.00 | 0.00 | 49 | 1011.8 |
| 20260831204009 | 88 | 136 | 5.0 | 13.0 | 0.00 | 0.00 | 0.00 | 49 | 1011.8 |
| 20260831203509 | 88 | 180 | 3.0 | 11.0 | 0.00 | 0.00 | 0.00 | 48 | 1011.8 |
| 20260831203009 | 89 | 111 | 2.0 | 9.0 | 0.00 | 0.00 | 0.00 | 49 | 1011.8 |
| 20260831202508 | 88 | 125 | 3.0 | 9.0 | 0.00 | 0.00 | 0.00 | 49 | 1011.8 |
| 20260831202006 | 87 | 172 | 1.0 | 9.0 | 0.00 | 0.00 | 0.00 | 50 | 1011.8 |
| 20260831201506 | 87 | 53 | 2.0 | 9.0 | 0.00 | 0.00 | 0.00 | 51 | 1011.8 |
| 20260831201006 | 87 | 125 | 3.0 | 9.0 | 0.00 | 0.00 | 0.00 | 50 | 1012.0 |
| 20260831200506 | 87 | 151 | 5.0 | 9.0 | 0.00 | 0.00 | 0.00 | 49 | 1012.0 |
| 20260831200005 | 87 | 69 | 5.0 | 11.0 | 0.00 | 0.00 | 0.00 | 49 | 1012.0 |
| 20260831195506 | 87 | 107 | 3.0 | 11.0 | 0.00 | 0.00 | 0.00 | 49 | 1012.1 |
| 20260831195006 | 87 | 100 | 2.0 | 10.0 | 0.00 | 0.00 | 0.00 | 48 | 1012.1 |
| 20260831194504 | 86 | 92 | 4.0 | 8.0 | 0.00 | 0.00 | 0.00 | 48 | 1012.1 |
| 20260831194006 | 86 | 96 | 3.0 | 12.0 | 0.00 | 0.00 | 0.00 | 48 | 1012.2 |
| 20260831193504 | 86 | 142 | 4.0 | 13.0 | 0.00 | 0.00 | 0.00 | 48 | 1012.2 |
| 20260831193004 | 86 | 113 | 2.0 | 7.0 | 0.00 | 0.00 | 0.00 | 49 | 1012.2 |
| 20260831192504 | 85 | 126 | 1.0 | 12.0 | 0.00 | 0.00 | 0.00 | 51 | 1012.3 |
| 20260831192004 | 85 | 114 | 3.0 | 10.0 | 0.00 | 0.00 | 0.00 | 53 | 1012.3 |
| 20260831191502 | 85 | 157 | 4.0 | 10.0 | 0.00 | 0.00 | 0.00 | 54 | 1012.4 |
| 20260831191002 | 84 | 90 | 3.0 | 10.0 | 0.00 | 0.00 | 0.00 | 55 | 1012.5 |
| 20260831190502 | 84 | 103 | 3.0 | 10.0 | 0.00 | 0.00 | 0.00 | 56 | 1012.6 |
| 20260831190004 | 84 | 103 | 3.0 | 10.0 | 0.00 | 0.00 | 0.00 | 55 | 1012.5 |
| 20260831185504 | 84 | 182 | 2.0 | 9.0 | 0.00 | 0.00 | 0.00 | 55 | 1012.5 |
| 20260831185002 | 83 | 212 | 2.0 | 7.0 | 0.00 | 0.00 | 0.00 | 55 | 1012.7 |
| 20260831184611 | 83 | 134 | 3.0 | 8.0 | 0.00 | 0.00 | 0.00 | 56 | 1012.7 |
| 20260831184100 | 83 | 126 | 1.0 | 10.0 | 0.00 | 0.00 | 0.00 | 58 | 1012.6 |
| 20260831183600 | 83 | 122 | 4.0 | 11.0 | 0.00 | 0.00 | 0.00 | 56 | 1012.7 |
| 20260831183101 | 83 | 119 | 2.0 | 8.0 | 0.00 | 0.00 | 0.00 | 54 | 1012.6 |
| 20260831182601 | 83 | 138 | 1.0 | 8.0 | 0.00 | 0.00 | 0.00 | 56 | 1012.7 |
| 20260831182100 | 83 | 87 | 1.0 | 8.0 | 0.00 | 0.00 | 0.00 | 56 | 1012.7 |
| 20260831181602 | 83 | 107 | 3.0 | 11.0 | 0.00 | 0.00 | 0.00 | 55 | 1012.7 |
| 20260831181059 | 83 | 82 | 3.0 | 6.0 | 0.00 | 0.00 | 0.00 | 57 | 1012.7 |
| 20260831180659 | 83 | 155 | 2.0 | 7.0 | 0.00 | 0.00 | 0.00 | 57 | 1012.8 |
| 20260831180059 | 83 | 143 | 3.0 | 8.0 | 0.00 | 0.00 | 0.00 | 56 | 1012.9 |
| 20260831175600 | 82 | 66 | 2.0 | 11.0 | 0.00 | 0.00 | 0.00 | 57 | 1013.0 |
| 20260831175058 | 82 | 75 | 5.0 | 11.0 | 0.00 | 0.00 | 0.00 | 58 | 1013.0 |
| 20260831174626 | 82 | 110 | 2.0 | 8.0 | 0.00 | 0.00 | 0.00 | 59 | 1013.0 |
| 20260831174057 | 81 | 61 | 1.0 | 10.0 | 0.00 | 0.00 | 0.00 | 60 | 1013.0 |
| 20260831173556 | 81 | 67 | 5.0 | 10.0 | 0.00 | 0.00 | 0.00 | 61 | 1013.1 |
| 20260831173055 | 81 | 70 | 4.0 | 9.0 | 0.00 | 0.00 | 0.00 | 61 | 1013.1 |
| 20260831172554 | 80 | 76 | 4.0 | 10.0 | 0.00 | 0.00 | 0.00 | 61 | 1013.1 |
| 20260831172053 | 80 | 97 | 6.0 | 9.0 | 0.00 | 0.00 | 0.00 | 61 | 1013.1 |
| 20260831171552 | 80 | 67 | 3.0 | 11.0 | 0.00 | 0.00 | 0.00 | 60 | 1013.1 |
| 20260831171052 | 80 | 87 | 5.0 | 13.0 | 0.00 | 0.00 | 0.00 | 60 | 1013.1 |
| 20260831170552 | 80 | 55 | 4.0 | 13.0 | 0.00 | 0.00 | 0.00 | 61 | 1013.1 |
| 20260831170056 | 80 | 65 | 4.0 | 10.0 | 0.00 | 0.00 | 0.00 | 60 | 1013.0 |
| 20260831165555 | 79 | 82 | 4.0 | 10.0 | 0.00 | 0.00 | 0.00 | 60 | 1013.0 |
| 20260831165054 | 79 | 76 | 3.0 | 11.0 | 0.00 | 0.00 | 0.00 | 61 | 1013.0 |
| 20260831164555 | 79 | 36 | 7.0 | 11.0 | 0.00 | 0.00 | 0.00 | 65 | 1013.0 |
| 20260831164050 | 79 | 82 | 6.0 | 11.0 | 0.00 | 0.00 | 0.00 | 65 | 1012.9 |
| 20260831163549 | 79 | 45 | 6.0 | 11.0 | 0.00 | 0.00 | 0.00 | 67 | 1013.0 |
| 20260831163048 | 79 | 62 | 4.0 | 10.0 | 0.00 | 0.00 | 0.00 | 67 | 1012.8 |
| 20260831162547 | 79 | 98 | 3.0 | 13.0 | 0.00 | 0.00 | 0.00 | 68 | 1012.7 |
| 20260831162045 | 79 | 88 | 7.0 | 13.0 | 0.00 | 0.00 | 0.00 | 68 | 1012.7 |
| 20260831161544 | 79 | 90 | 6.0 | 12.0 | 0.00 | 0.00 | 0.00 | 68 | 1012.8 |
| 20260831161043 | 79 | 42 | 3.0 | 12.0 | 0.00 | 0.00 | 0.00 | 68 | 1012.6 |
| 20260831160542 | 79 | 55 | 5.0 | 12.0 | 0.00 | 0.00 | 0.00 | 68 | 1012.4 |
| 20260831160043 | 79 | 59 | 4.0 | 11.0 | 0.00 | 0.00 | 0.00 | 68 | 1012.4 |
| 20260831155541 | 79 | 86 | 1.0 | 7.0 | 0.00 | 0.00 | 0.00 | 69 | 1012.4 |
| 20260831155041 | 79 | 50 | 0.0 | 6.0 | 0.00 | 0.00 | 0.00 | 69 | 1012.4 |
| 20260831154544 | 79 | 85 | 2.0 | 8.0 | 0.00 | 0.00 | 0.00 | 69 | 1012.2 |
| 20260831154039 | 79 | 78 | 1.0 | 8.0 | 0.00 | 0.00 | 0.00 | 69 | 1012.3 |
| 20260831153541 | 79 | 107 | 1.0 | 7.0 | 0.00 | 0.00 | 0.00 | 68 | 1012.2 |
| 20260831153050 | 79 | 86 | 2.0 | 11.0 | 0.00 | 0.00 | 0.00 | 68 | 1012.3 |
| 20260831152539 | 79 | 156 | 4.0 | 11.0 | 0.00 | 0.00 | 0.00 | 67 | 1012.3 |
| 20260831152037 | 79 | 165 | 3.0 | 12.0 | 0.00 | 0.00 | 0.00 | 67 | 1012.3 |
| 20260831151544 | 79 | 98 | 4.0 | 10.0 | 0.00 | 0.00 | 0.00 | 66 | 1012.2 |
| 20260831151037 | 80 | 88 | 5.0 | 10.0 | 0.00 | 0.00 | 0.00 | 65 | 1012.1 |
| 20260831150537 | 80 | 190 | 1.0 | 10.0 | 0.00 | 0.00 | 0.00 | 64 | 1012.1 |
| 20260831150033 | 80 | 123 | 4.0 | 10.0 | 0.00 | 0.00 | 0.00 | 64 | 1012.0 |
| 20260831145533 | 80 | 120 | 0.0 | 10.0 | 0.00 | 0.00 | 0.00 | 64 | 1011.9 |
| 20260831145032 | 80 | 136 | 2.0 | 10.0 | 0.00 | 0.00 | 0.00 | 63 | 1011.8 |
| 20260831144528 | 80 | 117 | 1.0 | 9.0 | 0.00 | 0.00 | 0.00 | 63 | 1011.5 |
| 20260831144028 | 80 | 135 | 1.0 | 9.0 | 0.00 | 0.00 | 0.00 | 63 | 1011.4 |
| 20260831143529 | 80 | 114 | 1.0 | 10.0 | 0.00 | 0.00 | 0.00 | 63 | 1011.3 |
| 20260831143024 | 81 | 86 | 1.0 | 9.0 | 0.00 | 0.00 | 0.00 | 62 | 1011.3 |
| 20260831142524 | 81 | 136 | 3.0 | 10.0 | 0.00 | 0.00 | 0.00 | 61 | 1011.1 |
| 20260831142024 | 81 | 150 | 4.0 | 10.0 | 0.00 | 0.00 | 0.00 | 59 | 1011.0 |
| 20260831141522 | 81 | 80 | 2.0 | 7.0 | 0.00 | 0.00 | 0.00 | 59 | 1010.8 |
| 20260831141020 | 81 | 42 | 1.0 | 5.0 | 0.00 | 0.00 | 0.00 | 59 | 1010.7 |
| 20260831140522 | 81 | 56 | 0.0 | 4.0 | 0.00 | 0.00 | 0.00 | 59 | 1010.5 |
| 20260831140017 | 81 | 75 | 1.0 | 5.0 | 0.00 | 0.00 | 0.00 | 59 | 1010.4 |
| 20260831135516 | 80 | 47 | 1.0 | 5.0 | 0.00 | 0.00 | 0.00 | 59 | 1010.2 |
| 20260831135015 | 80 | 57 | 1.0 | 3.0 | 0.00 | 0.00 | 0.00 | 58 | 1010.0 |
| 20260831134518 | 80 | 72 | 0.0 | 3.0 | 0.00 | 0.00 | 0.00 | 58 | 1009.9 |
| 20260831134013 | 80 | 51 | 0.0 | 2.0 | 0.00 | 0.00 | 0.00 | 58 | 1009.8 |
| 20260831133512 | 80 | 79 | 0.0 | 1.0 | 0.00 | 0.00 | 0.00 | 57 | 1009.7 |
| 20260831133014 | 80 | 79 | 0.0 | 2.0 | 0.00 | 0.00 | 0.00 | 57 | 1009.6 |
| 20260831132511 | 81 | 34 | 0.0 | 0.0 | 0.00 | 0.00 | 0.00 | 58 | 1009.4 |
| 20260831132010 | 81 | 34 | 0.0 | 2.0 | 0.00 | 0.00 | 0.00 | 58 | 1009.4 |
| 20260831131509 | 81 | 33 | 0.0 | 2.0 | 0.00 | 0.00 | 0.00 | 57 | 1009.3 |
| 20260831131011 | 81 | 147 | 0.0 | 2.0 | 0.00 | 0.00 | 0.00 | 56 | 1009.3 |
| 20260831130508 | 81 | 105 | 0.0 | 2.0 | 0.00 | 0.00 | 0.00 | 56 | 1009.3 |
| 20260831130009 | 81 | 63 | 0.0 | 0.0 | 0.00 | 0.00 | 0.00 | 58 | 1009.1 |
| 20260831125507 | 81 | 115 | 0.0 | 1.0 | 0.00 | 0.00 | 0.00 | 56 | 1009.1 |
| 20260831125007 | 81 | 115 | 0.0 | 2.0 | 0.00 | 0.00 | 0.00 | 56 | 1009.2 |
| 20260831124507 | 81 | 95 | 0.0 | 1.0 | 0.00 | 0.00 | 0.00 | 55 | 1009.1 |
| 20260831124005 | 81 | 78 | 0.0 | 2.0 | 0.00 | 0.00 | 0.00 | 55 | 1009.0 |
| 20260831123508 | 81 | 106 | 0.0 | 2.0 | 0.00 | 0.00 | 0.00 | 55 | 1009.0 |
| 20260831123007 | 81 | 143 | 0.0 | 2.0 | 0.00 | 0.00 | 0.00 | 54 | 1009.0 |
| 20260831122505 | 81 | 146 | 0.0 | 2.0 | 0.00 | 0.00 | 0.00 | 53 | 1008.9 |
| 20260831122005 | 81 | 175 | 0.0 | 3.0 | 0.00 | 0.00 | 0.00 | 52 | 1008.9 |
| 20260831121505 | 81 | 57 | 0.0 | 3.0 | 0.00 | 0.00 | 0.00 | 52 | 1009.0 |
| 20260831121003 | 81 | 56 | 0.0 | 3.0 | 0.00 | 0.00 | 0.00 | 51 | 1008.8 |
| 20260831120503 | 81 | 130 | 0.0 | 2.0 | 0.00 | 0.00 | 0.00 | 50 | 1008.9 |
| 20260831120002 | 81 | 51 | 0.0 | 3.0 | 0.00 | 0.00 | 0.00 | 51 | 1008.7 |
| 20260831115501 | 81 | 355 | 0.0 | 5.0 | 0.00 | 0.00 | 0.00 | 51 | 1008.5 |
| 20260831115000 | 81 | 355 | 1.0 | 5.0 | 0.00 | 0.00 | 0.00 | 51 | 1008.4 |
| 20260831114603 | 81 | 5 | 0.0 | 6.0 | 0.00 | 0.00 | 0.00 | 51 | 1008.4 |
| 20260831114100 | 81 | 57 | 3.0 | 6.0 | 0.00 | 0.00 | 0.00 | 50 | 1008.4 |
| 20260831113600 | 81 | 28 | 1.0 | 7.0 | 0.00 | 0.00 | 0.00 | 50 | 1008.4 |
| 20260831113108 | 81 | 15 | 1.0 | 7.0 | 0.00 | 0.00 | 0.00 | 51 | 1008.3 |
| 20260831113001 | 81 | 55 | 1.0 | 7.0 | 0.00 | 0.00 | 0.00 | 51 | 1008.3 |
| 20260831112559 | 81 | 338 | 2.0 | 7.0 | 0.00 | 0.00 | 0.00 | 51 | 1008.3 |
| 20260831112058 | 81 | 31 | 3.0 | 7.0 | 0.00 | 0.00 | 0.00 | 51 | 1008.1 |
| 20260831111557 | 80 | 42 | 1.0 | 7.0 | 0.00 | 0.00 | 0.00 | 52 | 1008.0 |
| 20260831111058 | 80 | 40 | 2.0 | 6.0 | 0.00 | 0.00 | 0.00 | 53 | 1008.0 |
| 20260831110557 | 80 | 46 | 3.0 | 6.0 | 0.00 | 0.00 | 0.00 | 54 | 1008.0 |
| 20260831110058 | 80 | 27 | 1.0 | 6.0 | 0.00 | 0.00 | 0.00 | 54 | 1007.9 |
| 20260831105559 | 80 | 348 | 2.0 | 7.0 | 0.00 | 0.00 | 0.00 | 55 | 1007.9 |
| 20260831105127 | 80 | 52 | 4.0 | 7.0 | 0.00 | 0.00 | 0.00 | 55 | 1007.8 |
| 20260831104600 | 80 | 5 | 3.0 | 6.0 | 0.00 | 0.00 | 0.00 | 55 | 1007.8 |
| 20260831104057 | 80 | 42 | 2.0 | 9.0 | 0.00 | 0.00 | 0.00 | 56 | 1007.9 |
| 20260831103557 | 80 | 42 | 3.0 | 9.0 | 0.00 | 0.00 | 0.00 | 57 | 1007.8 |
| 20260831103100 | 79 | 344 | 2.0 | 6.0 | 0.00 | 0.00 | 0.00 | 57 | 1007.7 |
| 20260831102556 | 79 | 19 | 2.0 | 6.0 | 0.00 | 0.00 | 0.00 | 57 | 1007.8 |
| 20260831102056 | 79 | 36 | 1.0 | 6.0 | 0.00 | 0.00 | 0.00 | 60 | 1007.8 |
| 20260831101555 | 79 | 5 | 3.0 | 6.0 | 0.00 | 0.00 | 0.00 | 60 | 1007.8 |
| 20260831101055 | 79 | 41 | 4.0 | 7.0 | 0.00 | 0.00 | 0.00 | 59 | 1007.8 |
| 20260831100554 | 79 | 49 | 4.0 | 7.0 | 0.00 | 0.00 | 0.00 | 59 | 1008.0 |
| 20260831100054 | 79 | 19 | 3.0 | 6.0 | 0.00 | 0.00 | 0.00 | 59 | 1008.1 |
| 20260831095553 | 80 | 19 | 2.0 | 6.0 | 0.00 | 0.00 | 0.00 | 59 | 1008.1 |
| 20260831095052 | 80 | 64 | 3.0 | 7.0 | 0.00 | 0.00 | 0.00 | 59 | 1008.1 |
| 20260831094602 | 80 | 57 | 2.0 | 7.0 | 0.00 | 0.00 | 0.00 | 59 | 1008.0 |
| 20260831094051 | 80 | 76 | 3.0 | 7.0 | 0.00 | 0.00 | 0.00 | 58 | 1008.1 |
| 20260831093550 | 81 | 92 | 1.0 | 6.0 | 0.00 | 0.00 | 0.00 | 57 | 1008.0 |
| 20260831093136 | 81 | 87 | 0.0 | 6.0 | 0.00 | 0.00 | 0.00 | 56 | 1008.0 |
| 20260831092548 | 81 | 105 | 2.0 | 7.0 | 0.00 | 0.00 | 0.00 | 55 | 1007.9 |
| 20260831092047 | 81 | 58 | 3.0 | 7.0 | 0.00 | 0.00 | 0.00 | 55 | 1007.8 |
| 20260831091550 | 81 | 65 | 2.0 | 7.0 | 0.00 | 0.00 | 0.00 | 54 | 1007.8 |
| 20260831091045 | 82 | 46 | 2.0 | 10.0 | 0.00 | 0.00 | 0.00 | 53 | 1007.8 |
| 20260831090544 | 82 | 59 | 2.0 | 10.0 | 0.00 | 0.00 | 0.00 | 53 | 1007.8 |
| 20260831090043 | 83 | 55 | 5.0 | 11.0 | 0.00 | 0.00 | 0.00 | 51 | 1007.7 |
| 20260831085541 | 83 | 45 | 5.0 | 12.0 | 0.00 | 0.00 | 0.00 | 48 | 1007.5 |
| 20260831085040 | 84 | 80 | 6.0 | 14.0 | 0.00 | 0.00 | 0.00 | 47 | 1007.4 |
| 20260831084625 | 84 | 69 | 9.0 | 17.0 | 0.00 | 0.00 | 0.00 | 45 | 1007.2 |
| 20260831084037 | 85 | 30 | 10.0 | 19.0 | 0.00 | 0.00 | 0.00 | 44 | 1007.1 |
| 20260831083537 | 85 | 28 | 10.0 | 19.0 | 0.00 | 0.00 | 0.00 | 43 | 1007.1 |
| 20260831083045 | 86 | 88 | 8.0 | 15.0 | 0.00 | 0.00 | 0.00 | 41 | 1006.9 |
| 20260831082537 | 87 | 40 | 11.0 | 15.0 | 0.00 | 0.00 | 0.00 | 40 | 1006.9 |
| 20260831082037 | 86 | 57 | 8.0 | 15.0 | 0.00 | 0.00 | 0.00 | 40 | 1006.8 |
| 20260831081537 | 86 | 26 | 6.0 | 14.0 | 0.00 | 0.00 | 0.00 | 41 | 1006.8 |
| 20260831081037 | 87 | 56 | 10.0 | 14.0 | 0.00 | 0.00 | 0.00 | 41 | 1006.8 |
| 20260831080535 | 87 | 40 | 8.0 | 17.0 | 0.00 | 0.00 | 0.00 | 41 | 1006.8 |
| 20260831080043 | 87 | 53 | 7.0 | 17.0 | 0.00 | 0.00 | 0.00 | 41 | 1006.9 |
| 20260831075535 | 86 | 35 | 7.0 | 18.0 | 0.00 | 0.00 | 0.00 | 41 | 1007.0 |
| 20260831075033 | 86 | 360 | 11.0 | 21.0 | 0.00 | 0.00 | 0.00 | 42 | 1007.1 |
| 20260831074543 | 86 | 40 | 11.0 | 19.0 | 0.00 | 0.00 | 0.00 | 43 | 1007.1 |
| 20260831074032 | 86 | 27 | 9.0 | 21.0 | 0.00 | 0.00 | 0.00 | 45 | 1007.2 |
| 20260831073531 | 85 | 63 | 10.0 | 21.0 | 0.00 | 0.00 | 0.00 | 45 | 1007.2 |
| 20260831073031 | 85 | 5 | 14.0 | 20.0 | 0.00 | 0.00 | 0.00 | 46 | 1007.2 |
| 20260831072529 | 85 | 5 | 11.0 | 22.0 | 0.00 | 0.00 | 0.00 | 47 | 1007.1 |
| 20260831072028 | 85 | 29 | 11.0 | 22.0 | 0.00 | 0.00 | 0.00 | 48 | 1007.2 |
| 20260831071536 | 85 | 24 | 11.0 | 19.0 | 0.00 | 0.00 | 0.00 | 48 | 1007.3 |
| 20260831071027 | 85 | 31 | 9.0 | 19.0 | 0.00 | 0.00 | 0.00 | 47 | 1007.3 |
| 20260831070525 | 86 | 59 | 10.0 | 17.0 | 0.00 | 0.00 | 0.00 | 47 | 1007.3 |
| 20260831070029 | 86 | 333 | 8.0 | 15.0 | 0.00 | 0.00 | 0.00 | 47 | 1007.2 |
| 20260831065526 | 86 | 360 | 7.0 | 18.0 | 0.00 | 0.00 | 0.00 | 46 | 1007.4 |
| 20260831065025 | 87 | 337 | 7.0 | 19.0 | 0.00 | 0.00 | 0.00 | 45 | 1007.5 |
| 20260831064527 | 87 | 355 | 11.0 | 19.0 | 0.00 | 0.00 | 0.00 | 46 | 1007.3 |
| 20260831064024 | 86 | 5 | 11.0 | 17.0 | 0.00 | 0.00 | 0.00 | 44 | 1007.4 |
| 20260831063523 | 86 | 360 | 8.0 | 19.0 | 0.00 | 0.00 | 0.00 | 46 | 1007.4 |
| 20260831063023 | 85 | 328 | 11.0 | 19.0 | 0.00 | 0.00 | 0.00 | 48 | 1007.5 |
| 20260831062524 | 84 | 325 | 10.0 | 19.0 | 0.00 | 0.00 | 0.00 | 51 | 1007.6 |
| 20260831062022 | 83 | 333 | 11.0 | 19.0 | 0.00 | 0.00 | 0.00 | 53 | 1007.7 |
| 20260831061521 | 83 | 5 | 8.0 | 19.0 | 0.00 | 0.00 | 0.00 | 55 | 1007.8 |
| 20260831061021 | 84 | 348 | 7.0 | 15.0 | 0.00 | 0.00 | 0.00 | 57 | 1007.9 |
| 20260831060518 | 85 | 13 | 6.0 | 12.0 | 0.00 | 0.00 | 0.00 | 54 | 1007.8 |
| 20260831060018 | 86 | 350 | 7.0 | 12.0 | 0.00 | 0.00 | 0.00 | 52 | 1008.0 |
| 20260831055518 | 86 | 338 | 5.0 | 12.0 | 0.00 | 0.00 | 0.00 | 50 | 1008.2 |
| 20260831055018 | 86 | 343 | 4.0 | 12.0 | 0.00 | 0.00 | 0.00 | 50 | 1008.4 |
| 20260831054521 | 86 | 326 | 2.0 | 8.0 | 0.00 | 0.00 | 0.00 | 50 | 1008.6 |
| 20260831054018 | 85 | 344 | 5.0 | 12.0 | 0.00 | 0.00 | 0.00 | 50 | 1008.7 |
| 20260831053519 | 85 | 17 | 5.0 | 13.0 | 0.00 | 0.00 | 0.00 | 51 | 1008.7 |
| 20260831053018 | 85 | 349 | 5.0 | 13.0 | 0.00 | 0.00 | 0.00 | 52 | 1008.8 |
| 20260831052517 | 85 | 325 | 6.0 | 14.0 | 0.00 | 0.00 | 0.00 | 52 | 1008.8 |
| 20260831052017 | 84 | 341 | 8.0 | 14.0 | 0.00 | 0.00 | 0.00 | 52 | 1008.6 |
| 20260831051526 | 84 | 327 | 7.0 | 11.0 | 0.00 | 0.00 | 0.00 | 54 | 1008.4 |
| 20260831051015 | 86 | 334 | 3.0 | 8.0 | 0.00 | 0.00 | 0.00 | 52 | 1008.4 |
| 20260831050520 | 87 | 51 | 0.0 | 11.0 | 0.00 | 0.00 | 0.00 | 51 | 1008.5 |
| 20260831050015 | 88 | 72 | 2.0 | 10.0 | 0.00 | 0.00 | 0.00 | 47 | 1008.3 |
| 20260831045518 | 89 | 207 | 1.0 | 13.0 | 0.00 | 0.00 | 0.00 | 45 | 1008.0 |
| 20260831045014 | 89 | 213 | 2.0 | 13.0 | 0.00 | 0.00 | 0.00 | 42 | 1007.6 |
| 20260831044517 | 90 | 218 | 4.0 | 13.0 | 0.00 | 0.00 | 0.00 | 43 | 1007.4 |
| 20260831044014 | 90 | 229 | 4.0 | 10.0 | 0.00 | 0.00 | 0.00 | 44 | 1007.0 |
| 20260831043514 | 90 | 233 | 1.0 | 11.0 | 0.00 | 0.00 | 0.00 | 43 | 1006.7 |
| 20260831043014 | 91 | 254 | 3.0 | 16.0 | 0.00 | 0.00 | 0.00 | 42 | 1006.7 |
| 20260831042514 | 92 | 203 | 3.0 | 16.0 | 0.00 | 0.00 | 0.00 | 41 | 1006.7 |
| 20260831042014 | 93 | 209 | 2.0 | 15.0 | 0.00 | 0.00 | 0.00 | 40 | 1006.7 |
| 20260831041516 | 93 | 204 | 3.0 | 10.0 | 0.00 | 0.00 | 0.00 | 39 | 1006.7 |
| 20260831041013 | 94 | 221 | 4.0 | 11.0 | 0.00 | 0.00 | 0.00 | 39 | 1006.2 |
| 20260831040515 | 94 | 153 | 4.0 | 11.0 | 0.00 | 0.00 | 0.00 | 38 | 1006.1 |
| 20260831040021 | 95 | 196 | 4.0 | 16.0 | 0.00 | 0.00 | 0.00 | 37 | 1006.0 |
| 20260831035512 | 97 | 259 | 6.0 | 16.0 | 0.00 | 0.00 | 0.00 | 36 | 1005.8 |
| 20260831035012 | 98 | 225 | 3.0 | 7.0 | 0.00 | 0.00 | 0.00 | 33 | 1005.6 |
| 20260831034512 | 98 | 211 | 1.0 | 5.0 | 0.00 | 0.00 | 0.00 | 33 | 1005.0 |
| 20260831034012 | 98 | 205 | 0.0 | 5.0 | 0.00 | 0.00 | 0.00 | 33 | 1004.8 |
| 20260831033512 | 98 | 273 | 1.0 | 5.0 | 0.00 | 0.00 | 0.00 | 33 | 1004.8 |
| 20260831033012 | 98 | 268 | 1.0 | 8.0 | 0.00 | 0.00 | 0.00 | 33 | 1004.8 |
| 20260831032512 | 98 | 187 | 0.0 | 8.0 | 0.00 | 0.00 | 0.00 | 33 | 1004.8 |
| 20260831032011 | 99 | 310 | 0.0 | 3.0 | 0.00 | 0.00 | 0.00 | 33 | 1005.0 |
| 20260831031511 | 99 | 194 | 1.0 | 4.0 | 0.00 | 0.00 | 0.00 | 33 | 1005.1 |
| 20260831031010 | 99 | 250 | 0.0 | 4.0 | 0.00 | 0.00 | 0.00 | 32 | 1005.1 |
| 20260831030511 | 99 | 228 | 0.0 | 3.0 | 0.00 | 0.00 | 0.00 | 32 | 1005.0 |
| 20260831030010 | 99 | 234 | 0.0 | 3.0 | 0.00 | 0.00 | 0.00 | 32 | 1004.9 |
| 20260831025511 | 99 | 238 | 0.0 | 3.0 | 0.00 | 0.00 | 0.00 | 32 | 1004.6 |
| 20260831025011 | 99 | 243 | 0.0 | 4.0 | 0.00 | 0.00 | 0.00 | 32 | 1004.5 |
| 20260831024510 | 99 | 224 | 1.0 | 3.0 | 0.00 | 0.00 | 0.00 | 31 | 1004.4 |
| 20260831024010 | 99 | 244 | 0.0 | 5.0 | 0.00 | 0.00 | 0.00 | 31 | 1004.4 |
| 20260831023512 | 99 | 230 | 1.0 | 5.0 | 0.00 | 0.00 | 0.00 | 30 | 1004.4 |
| 20260831023009 | 99 | 201 | 0.0 | 4.0 | 0.00 | 0.00 | 0.00 | 30 | 1004.3 |
| 20260831022509 | 100 | 196 | 0.0 | 4.0 | 0.00 | 0.00 | 0.00 | 30 | 1004.3 |
| 20260831022009 | 100 | 197 | 0.0 | 3.0 | 0.00 | 0.00 | 0.00 | 30 | 1004.2 |
| 20260831021509 | 100 | 197 | 0.0 | 5.0 | 0.00 | 0.00 | 0.00 | 29 | 1004.1 |
| 20260831021009 | 100 | 239 | 2.0 | 5.0 | 0.00 | 0.00 | 0.00 | 29 | 1004.0 |
| 20260831020510 | 100 | 234 | 1.0 | 6.0 | 0.00 | 0.00 | 0.00 | 29 | 1003.9 |
| 20260831020009 | 100 | 257 | 1.0 | 6.0 | 0.00 | 0.00 | 0.00 | 29 | 1003.9 |
| 20260831015508 | 100 | 219 | 0.0 | 6.0 | 0.00 | 0.00 | 0.00 | 29 | 1003.8 |
| 20260831015008 | 101 | 223 | 2.0 | 6.0 | 0.00 | 0.00 | 0.00 | 28 | 1003.7 |